Powrót do katalogu

DELTA 1 DEB

AktywnyLEO
NORAD 10338·DEBRIS·🇺🇸 United States

Wystrzelony Jul 14, 1977 z Cape Canaveral Space Force Station

Loading…

Następne Przeloty (najbliższe 24 godziny)

TLE

ŚwieżeSource: Space-Track

Epoka: Sep 14, 2026, 01:25 UTC

1 10338U 77065DM  26257.05917162  .00000871  00000-0  13972-3 0  9994
2 10338  29.0606 213.2233 0615633 196.2679 161.7277 13.84548761426088

Śledź DELTA 1 DEB w czasie rzeczywistym z AllMySat

Download on the App Store